Location: Asheville, NC
(35.6000°N, 82.5500°W)
Time: 04:47:59
(UTC-04:00)

Vanguard 2 Rocket - Pass Details

Date: 13 February 2018
Orbit: 554 x 3327 km, 32.9° (Epoch: 20 May)

Event Time Altitude Azimuth Distance (km) Brightness Sun altitude
Rises 23:07:21 0° 215° (SW) 5,265 - -58.6°
Reaches altitude 10° 23:10:34 10° 209° (SSW) 4,603 - -59.1°
Maximum altitude 23:23:30 44° 142° (SE) 3,610 - -61.0°
Drops below altitude 10° 23:41:25 10° 80° (E) 6,286 - -63.4°
Exits shadow 23:44:18 - 77° (ENE) 6,836 11.2 -63.7°
Sets 23:46:42 0° 75° (ENE) 7,293 11.4 -64.0°
